Location: Piotrkow Trybunalski
(51.4000°N, 19.6830°E)
Time: 14:37:22
(UTC+01:00)

Vanguard 2 - Pass Details

Date: 15 February 2023
Orbit: 553 x 2927 km, 32.9° (Epoch: 24 March)

Event Time Altitude Azimuth Distance (km) Brightness Sun altitude
Rises 18:50:26 0° 226° (SW) 3,913 11.8 -18.4°
Reaches altitude 10° 18:53:22 10° 212° (SSW) 3,263 11.1 -18.8°
Maximum altitude 18:59:54 25° 161° (SSE) 2,935 10.2 -19.8°
Enters shadow 19:04:45 19° 130° (SE) 3,719 10.5 -20.6°
Drops below altitude 10° 19:09:09 10° 115° (ESE) 4,762 - -21.3°
Sets 19:14:35 0° 104° (ESE) 6,158 - -22.1°
